Volver al catálogo

PEGASUS DEB

ActivoPO
NORAD 24227·DEBRIS·🇺🇸 United States

Lanzado May 19, 1994 desde Vandenberg Space Force Base

Loading…

Próximos Pases (próximas 24 horas)

TLE

ActualizadoSource: Space-Track

Época: Sep 14, 2026, 05:56 UTC

1 24227U 94029LA  26257.24728199  .00001002  00000-0  11912-3 0  9995
2 24227  82.0427 353.1067 0134860 348.8695  40.0498 14.77099704614905

Sigue PEGASUS DEB en tiempo real con AllMySat

Download on the App Store